Location: Toronto
(43.6672°N, 79.4170°W)
Time: 09:50:38
(UTC-04:00)

ISS - Visible Passes

Search period start: 19 September 2014 00:00
Search period end: 29 September 2014 00:00
Orbit: 414 x 417 km, 51.6° (Epoch: 19 September)

Date Brightness Start Highest point End Pass type
(mag) Time Alt. Az. Time Alt. Az. Time Alt. Az.
19 Sep -0.1 04:09:17 15° ENE 04:09:17 15° ENE 04:09:55 10° ENE visible
19 Sep -1.7 05:42:10 19° NW 05:43:35 26° NNW 05:46:28 10° NE visible
20 Sep -1.6 04:55:19 29° N 04:55:19 29° N 04:57:41 10° NE visible
20 Sep -1.2 06:29:28 10° NW 06:32:02 20° N 06:34:36 10° NE visible
21 Sep 0.0 04:08:25 13° NE 04:08:25 13° NE 04:08:54 10° NE visible
21 Sep -1.2 05:41:18 15° NW 05:42:58 21° N 05:45:34 10° NE visible
22 Sep -1.2 04:54:22 22° N 04:54:22 22° N 04:56:37 10° NE visible
22 Sep -1.3 06:28:38 10° NW 06:31:22 23° N 06:34:04 10° ENE visible
23 Sep 0.2 04:07:25 12° NE 04:07:25 12° NE 04:07:41 10° NE visible
23 Sep -1.1 05:40:18 13° NW 05:42:14 21° N 05:44:50 10° NE visible
24 Sep -1.0 04:53:20 20° N 04:53:20 20° N 04:55:37 10° NE visible
24 Sep -1.7 06:27:25 10° NW 06:30:28 32° NNE 06:33:30 10° E visible
25 Sep 0.3 04:06:24 10° NE 04:06:24 10° NE 04:06:29 10° NE visible
25 Sep -1.4 05:39:16 15° NW 05:41:19 25° NNE 05:44:09 10° ENE visible
26 Sep -1.0 04:52:21 22° NNE 04:52:21 22° NNE 04:54:46 10° ENE visible
26 Sep -2.8 06:25:59 10° NW 06:29:17 59° NNE 06:32:34 10° ESE visible
27 Sep -2.1 05:38:22 21° NW 05:40:08 40° NNE 05:43:18 10° E visible
28 Sep -1.2 04:51:34 27° NE 04:51:34 27° NE 04:53:54 10° E visible
28 Sep -3.2 06:24:29 10° WNW 06:27:47 58° SW 06:31:03 10° SE visible
